Location: PACMO
(41.3967°N, 90.3760°W)
Time: 08:32:47
(UTC-05:00)

Amateur Radio Satellites - All Passes

Search period start: 21 October 2014 08:02
Search period end: 22 October 2014 08:02
Location: PACMO, 41.3967°N, 90.3760°W

Satellite Date Start Highest point End Downlink Frequencies (MHz)
Time Altitude Azimuth
AO-7 21 Oct 08:21:53 08:24:56 13° 317° (NW) 08:27:59 29.400 - 29.500 MHz
SO-67 21 Oct 08:32:06 08:35:25 45° 286° (WNW) 08:38:43 435.3500 MHz FM
Saudisat 1A 21 Oct 08:41:34 08:45:49 54° 119° (ESE) 08:50:07 436.775 MHz
HO-68 21 Oct 09:37:22 09:44:16 47° 100° (E) 09:51:06 435.675 MHz FM
Oscar 11 21 Oct 09:39:19 09:41:21 13° 91° (E) 09:43:23 145.825 FM, Beacon 2401.500 USB
PANSAT 21 Oct 10:07:35 10:07:49 10° 171° (S) 10:08:03 not established
RS-15 21 Oct 10:14:20 10:23:29 30° 256° (WSW) 10:32:58 29.354 - 29.394 USB, Beacon 29.352 USB
ZACube-1 21 Oct 10:17:04 10:19:21 14° 91° (E) 10:21:36 437.345 MHz
Saudisat 1A 21 Oct 10:22:26 10:25:42 20° 317° (NW) 10:28:59 436.775 MHz
UKube-1 21 Oct 10:28:25 10:32:41 50° 100° (E) 10:36:55 145.840 MHz, 145.915 MHz
MaSat-1 21 Oct 10:30:17 10:32:59 89° 232° (SW) 10:35:27 437.345 MHz
FUNcube-1 21 Oct 11:01:22 11:05:29 43° 98° (E) 11:09:29 145.950 - 145.970 MHz USB
Oscar 11 21 Oct 11:13:39 11:17:52 54° 287° (WNW) 11:22:03 145.825 FM, Beacon 2401.500 USB
HO-68 21 Oct 11:25:24 11:31:46 36° 298° (WNW) 11:38:07 435.675 MHz FM
PANSAT 21 Oct 11:45:50 11:47:10 12° 184° (S) 11:48:29 not established
ZACube-1 21 Oct 11:51:54 11:56:04 48° 287° (WNW) 12:00:07 437.345 MHz
Oscar 19 21 Oct 12:05:02 12:05:59 11° 57° (ENE) 12:06:56 437.125 CW, 437.150 USB
UKube-1 21 Oct 12:05:48 12:08:28 16° 297° (WNW) 12:11:07 145.840 MHz, 145.915 MHz
PCSat 21 Oct 12:12:28 12:14:37 12° 37° (NE) 12:16:46 145.825 MHz
JAS-1B 21 Oct 12:18:08 12:20:59 14° 58° (ENE) 12:23:45 435.800 - 435.900 CW/SSB
FUNcube-1 21 Oct 12:38:45 12:41:30 17° 296° (WNW) 12:44:11 145.950 - 145.970 MHz USB
KITSAT 1 21 Oct 12:46:04 12:53:44 50° 112° (ESE) 13:01:26 435.175 FM
Oscar 16 21 Oct 12:46:17 12:50:32 27° 66° (ENE) 12:54:47 437.025 USB, Beacon 2401.1428
Uribyol 2 21 Oct 13:00:15 13:03:23 16° 61° (ENE) 13:06:31 436.500 FM
ITAMSAT 1 21 Oct 13:05:09 13:08:23 17° 61° (ENE) 13:11:39 435.822 SSB
AO-Echo 21 Oct 13:12:41 13:16:24 22° 64° (ENE) 13:20:13 ?
SO-50 21 Oct 13:28:15 13:32:03 28° 113° (ESE) 13:35:57 436.795 FM
Sapphire 21 Oct 13:30:58 13:36:01 38° 52° (NE) 13:41:03 437.095 MHz 1200 baud AX-25 AFSK
Oscar 19 21 Oct 13:39:18 13:44:27 79° 75° (ENE) 13:49:37 437.125 CW, 437.150 USB
AO-7 21 Oct 13:47:34 13:49:33 11° 41° (NE) 13:51:33 29.400 - 29.500 MHz
AO-27 21 Oct 13:47:47 13:52:37 40° 69° (ENE) 13:57:29 436.795 MHz FM
PCSat 21 Oct 13:53:48 13:59:12 61° 57° (ENE) 14:04:32 145.825 MHz
JAS-1B 21 Oct 14:04:49 14:11:01 82° 256° (WSW) 14:16:44 435.800 - 435.900 CW/SSB
Oscar 16 21 Oct 14:24:53 14:29:41 38° 262° (W) 14:34:31 437.025 USB, Beacon 2401.1428
ISS 21 Oct 14:35:55 14:39:14 82° 143° (SE) 14:42:35 145.800 FM
Uribyol 2 21 Oct 14:37:05 14:42:16 69° 258° (WSW) 14:47:30 436.500 FM
Oscar 10/S400 21 Oct 14:37:12 14:54:42 42° 155° (SSE) 15:20:47 145.825 - 145.975 CW/USB, Beacon 145.810 USB
Gurwin Techsat 1B 21 Oct 14:39:48 14:45:01 62° 73° (ENE) 14:50:16 435.225 FM
KITSAT 1 21 Oct 14:41:43 14:49:16 42° 312° (NW) 14:56:51 435.175 FM
ITAMSAT 1 21 Oct 14:42:10 14:47:19 66° 258° (WSW) 14:52:32 435.822 SSB
AO-Echo 21 Oct 14:50:18 14:54:52 42° 262° (W) 14:59:37 ?
TMSAT-1 21 Oct 14:53:31 14:58:44 62° 73° (ENE) 15:03:58 436.925 FM
Uosat F 21 Oct 14:57:48 14:58:25 10° 57° (ENE) 14:59:02 435.120 FM
SO-50 21 Oct 15:08:21 15:12:29 34° 311° (NW) 15:16:44 436.795 FM
UOSAT-12 21 Oct 15:12:13 15:16:11 29° 113° (ESE) 15:20:15 437.025 FM, 437.400 FM
Sapphire 21 Oct 15:14:34 15:19:21 32° 250° (WSW) 15:24:06 437.095 MHz 1200 baud AX-25 AFSK
Oscar 19 21 Oct 15:22:25 15:24:22 12° 271° (W) 15:26:20 437.125 CW, 437.150 USB
AO-27 21 Oct 15:28:01 15:32:14 25° 266° (W) 15:36:30 436.795 MHz FM
AO-7 21 Oct 15:32:31 15:40:19 49° 63° (ENE) 15:48:09 29.400 - 29.500 MHz
PCSat 21 Oct 15:38:24 15:42:05 19° 255° (WSW) 15:45:46 145.825 MHz
ISS 21 Oct 16:13:37 16:16:16 21° 341° (NNW) 16:18:56 145.800 FM
JAS-2 21 Oct 16:19:57 16:24:00 19° 57° (ENE) 16:28:22 435.800 - 435.900 CW/SSB, 435.910 FM
Gurwin Techsat 1B 21 Oct 16:22:08 16:25:24 17° 269° (W) 16:28:42 435.225 FM
Uosat F 21 Oct 16:31:19 16:36:20 79° 74° (ENE) 16:41:23 435.120 FM
TMSAT-1 21 Oct 16:35:45 16:39:04 17° 269° (W) 16:42:23 436.925 FM
KITSAT 1 21 Oct 16:43:05 16:47:15 15° 339° (NNW) 16:51:25 435.175 FM
UOSAT-12 21 Oct 16:51:58 16:56:14 35° 311° (NW) 17:00:35 437.025 FM, 437.400 FM
Hamsat 21 Oct 16:56:08 16:58:44 16° 65° (ENE) 17:01:20 145.90 MHz
Saudisat 1A 21 Oct 17:08:07 17:12:22 44° 52° (NE) 17:16:36 436.775 MHz
AO-7 21 Oct 17:25:38 17:33:12 39° 262° (W) 17:40:49 29.400 - 29.500 MHz
AO-40 21 Oct 17:27:38 23:32:14 41° 184° (S) 05:22:30 Beacon 2401.320
ISS 21 Oct 17:52:00 17:53:55 14° 2° (N) 17:55:49 145.800 FM
OPAL 21 Oct 18:00:06 18:04:54 47° 102° (ESE) 18:09:39 ?
JAS-2 21 Oct 18:02:30 18:08:12 73° 258° (WSW) 18:14:44 435.800 - 435.900 CW/SSB, 435.910 FM
Uosat F 21 Oct 18:14:00 18:15:41 12° 271° (W) 18:17:23 435.120 FM
Hamsat 21 Oct 18:30:17 18:34:20 44° 261° (W) 18:38:22 145.90 MHz
KITSAT 1 21 Oct 18:44:23 18:47:02 12° 11° (N) 18:49:41 435.175 FM
Saudisat 1A 21 Oct 18:48:25 18:51:38 20° 249° (WSW) 18:54:50 436.775 MHz
SO-67 21 Oct 19:04:24 19:07:44 51° 75° (ENE) 19:11:06 435.3500 MHz FM
ISS 21 Oct 19:28:37 19:31:29 25° 22° (NNE) 19:34:20 145.800 FM
STRAND 1 21 Oct 19:38:33 19:43:37 53° 100° (E) 19:48:37 ?
OPAL 21 Oct 19:39:45 19:43:28 21° 299° (WNW) 19:47:08 ?
HO-68 21 Oct 20:06:15 20:12:36 36° 62° (ENE) 20:18:59 435.675 MHz FM
Oscar 11 21 Oct 20:35:33 20:37:04 12° 62° (ENE) 20:38:34 145.825 FM, Beacon 2401.500 USB
KITSAT 1 21 Oct 20:39:04 20:45:49 28° 40° (NE) 20:52:32 435.175 FM
ISS 21 Oct 21:05:05 21:08:22 55° 220° (SW) 21:11:38 145.800 FM
ZACube-1 21 Oct 21:13:57 21:16:22 14° 63° (ENE) 21:18:46 437.345 MHz
STRAND 1 21 Oct 21:18:42 21:22:23 20° 297° (WNW) 21:26:04 ?
UKube-1 21 Oct 21:23:50 21:27:58 44° 71° (ENE) 21:32:07 145.840 MHz, 145.915 MHz
HO-68 21 Oct 21:53:19 22:00:07 46° 260° (W) 22:06:59 435.675 MHz FM
FUNcube-1 21 Oct 21:57:24 22:01:38 38° 71° (ENE) 22:05:51 145.950 - 145.970 MHz USB
SO-50 21 Oct 21:59:06 22:03:23 31° 47° (NE) 22:07:42 436.795 FM
Oscar 11 21 Oct 22:08:21 22:12:40 70° 258° (WSW) 22:17:00 145.825 FM, Beacon 2401.500 USB
RS-15 21 Oct 22:24:46 22:35:04 48° 110° (ESE) 22:45:14 29.354 - 29.394 USB, Beacon 29.352 USB
KITSAT 1 21 Oct 22:34:02 22:42:08 82° 242° (WSW) 22:50:11 435.175 FM
ZACube-1 21 Oct 22:47:40 22:52:15 63° 259° (W) 22:56:47 437.345 MHz
UKube-1 21 Oct 23:01:34 23:04:21 17° 267° (W) 23:07:10 145.840 MHz, 145.915 MHz
FUNcube-1 21 Oct 23:34:36 23:38:06 21° 266° (W) 23:41:36 145.950 - 145.970 MHz USB
SO-50 21 Oct 23:39:33 23:44:00 37° 245° (WSW) 23:48:29 436.795 FM
UOSAT-12 21 Oct 23:41:22 23:45:29 29° 47° (NE) 23:49:33 437.025 FM, 437.400 FM
MaSat-1 22 Oct 00:07:37 00:11:14 27° 109° (ESE) 00:14:36 437.345 MHz
KITSAT 1 22 Oct 00:31:56 00:36:16 16° 260° (W) 00:40:36 435.175 FM
RS-15 22 Oct 00:36:39 00:47:16 53° 313° (NW) 00:57:57 29.354 - 29.394 USB, Beacon 29.352 USB
UOSAT-12 22 Oct 01:21:22 01:25:42 37° 245° (WSW) 01:29:57 437.025 FM, 437.400 FM
MaSat-1 22 Oct 01:43:23 01:46:55 26° 302° (WNW) 01:50:12 437.345 MHz
JAS-1B 22 Oct 01:47:23 01:52:56 27° 96° (E) 01:59:14 435.800 - 435.900 CW/SSB
Oscar 19 22 Oct 01:51:23 01:55:43 27° 95° (E) 02:00:01 437.125 CW, 437.150 USB
AO-27 22 Oct 02:02:15 02:04:57 14° 90° (E) 02:07:38 436.795 MHz FM
Oscar 16 22 Oct 02:36:02 02:41:11 75° 103° (ESE) 02:46:17 437.025 USB, Beacon 2401.1428
Uribyol 2 22 Oct 02:49:55 02:54:53 42° 99° (E) 02:59:47 436.500 FM
RS-15 22 Oct 02:54:52 03:02:59 23° 345° (NNW) 03:11:13 29.354 - 29.394 USB, Beacon 29.352 USB
ITAMSAT 1 22 Oct 02:55:05 03:00:05 44° 99° (E) 03:05:03 435.822 SSB
Gurwin Techsat 1B 22 Oct 02:56:34 03:00:52 25° 94° (E) 03:05:09 435.225 FM
AO-Echo 22 Oct 02:56:46 03:02:02 63° 101° (E) 03:07:18 ?
TMSAT-1 22 Oct 03:09:56 03:14:12 24° 94° (E) 03:18:27 436.925 FM
Oscar 19 22 Oct 03:30:27 03:35:06 36° 292° (WNW) 03:39:43 437.125 CW, 437.150 USB
AO-7 22 Oct 03:36:45 03:40:11 13° 87° (E) 03:43:35 29.400 - 29.500 MHz
JAS-1B 22 Oct 03:37:28 03:43:42 54° 289° (WNW) 03:51:05 435.800 - 435.900 CW/SSB
AO-27 22 Oct 03:39:45 03:44:58 71° 287° (WNW) 03:50:09 436.795 MHz FM
OPAL 22 Oct 03:39:59 03:41:58 12° 56° (NE) 03:43:55 ?
Sapphire 22 Oct 04:13:13 04:17:57 32° 110° (ESE) 04:22:44 437.095 MHz 1200 baud AX-25 AFSK
Oscar 16 22 Oct 04:17:11 04:19:53 15° 300° (WNW) 04:22:35 437.025 USB, Beacon 2401.1428
Uribyol 2 22 Oct 04:29:55 04:34:06 25° 295° (WNW) 04:38:15 436.500 FM
ITAMSAT 1 22 Oct 04:35:11 04:39:17 24° 296° (WNW) 04:43:23 435.822 SSB
PCSat 22 Oct 04:35:29 04:40:44 55° 114° (ESE) 04:46:02 145.825 MHz
Gurwin Techsat 1B 22 Oct 04:35:59 04:40:59 42° 291° (WNW) 04:45:56 435.225 FM
AO-Echo 22 Oct 04:36:45 04:40:17 18° 298° (WNW) 04:43:50 ?
Uosat F 22 Oct 04:39:38 04:43:42 24° 95° (E) 04:47:44 435.120 FM
TMSAT-1 22 Oct 04:49:17 04:54:16 43° 290° (WNW) 04:59:14 436.925 FM
JAS-2 22 Oct 05:11:48 05:17:22 21° 89° (E) 05:22:57 435.800 - 435.900 CW/SSB, 435.910 FM
RS-15 22 Oct 05:12:04 05:20:42 25° 21° (NNE) 05:29:29 29.354 - 29.394 USB, Beacon 29.352 USB
OPAL 22 Oct 05:14:54 05:20:04 87° 73° (ENE) 05:25:13 ?
STRAND 1 22 Oct 05:20:48 05:21:18 10° 57° (ENE) 05:21:49 ?
AO-7 22 Oct 05:25:57 05:34:17 73° 106° (ESE) 05:42:36 29.400 - 29.500 MHz
Sapphire 22 Oct 05:56:17 06:01:16 37° 308° (NW) 06:06:19 437.095 MHz 1200 baud AX-25 AFSK
Hamsat 22 Oct 06:15:52 06:19:34 29° 96° (E) 06:23:15 145.90 MHz
Uosat F 22 Oct 06:17:54 06:22:36 40° 291° (WNW) 06:27:16 435.120 FM
PCSat 22 Oct 06:20:06 06:24:29 25° 313° (NW) 06:28:53 145.825 MHz
STRAND 1 22 Oct 06:54:29 06:59:35 76° 74° (ENE) 07:04:45 ?
JAS-2 22 Oct 06:55:18 07:03:02 82° 286° (WNW) 07:10:53 435.800 - 435.900 CW/SSB, 435.910 FM
OPAL 22 Oct 06:58:16 06:59:33 11° 269° (W) 07:00:50 ?
Saudisat 1A 22 Oct 07:18:16 07:19:00 10° 107° (ESE) 07:19:45 436.775 MHz
AO-7 22 Oct 07:19:44 07:26:21 28° 305° (NW) 07:32:59 29.400 - 29.500 MHz
RS-15 22 Oct 07:24:54 07:35:56 62° 50° (NE) 07:47:24 29.354 - 29.394 USB, Beacon 29.352 USB
Hamsat 22 Oct 07:52:04 07:55:22 23° 292° (WNW) 07:58:40 145.90 MHz
